x

West Sea Otter (46204) Wave Buoy

10:00 - Thu 25th Aug 2016 All times are PDT. -7 hours from GMT.

  • Sig Wave height 7.5ft
  • Peak Period 8s
  • Wind
    20mph, 22mph gusts
  • Sea Temp 57°f
  • Air Temp 56°f
  • Sea Pressure 1023.7mb
  • West Sea Otter
  • West Sea Otter

More Historic Weather Station data

Upgrade to MSW Pro to gain access to the past 30 days of data for over 8000 Wavebouys and Weather Stations around the globe.

Join Pro

Comparision Forecast

View Surf forecast
   
jeu. 08/25 10:00 7.5ft 8s 20 22 mph 1023.7mb 57f 56f
9:00 7.5ft 8s 18 20 mph 1024mb 57f 57f
8:00 8ft 8s 18 25 mph 1024.1mb 57f 57f
7:00 8.5ft 7s 20 22 mph 1024mb 57f 57f
6:00 9ft 8s 18 22 mph 1023.9mb 57f 57f
5:00 9ft 7s 18
mph
1024mb 57f 57f
4:00 9ft 8s 20 27 mph 1024mb 57f 58f
3:00 10ft 8s 20 27 mph 1024.2mb 57f 58f
2:00 9ft 8s 20 25 mph 1024.3mb 57f 58f
1:00 9ft 8s 22 27 mph 1024.4mb 57f 58f
12:00 8ft 8s 20 25 mph 1024.6mb 57f 59f
mer. 08/24 11:00 7ft 8s 22 27 mph 1024.6mb 58f 59f
10:00 7.5ft 7s 22 29 mph 1024.7mb 58f 59f
9:00 7ft 8s 22
mph
1024.9mb 58f 60f
8:00 7ft 7s 20 25 mph 1024.7mb 58f 60f
7:00 6ft 7s 20 22 mph 1024.9mb 58f 59f
6:00 6ft 7s 18 22 mph 1025.4mb 58f 59f
5:00 6ft 7s 18 20 mph 1026mb 58f 58f
4:00 6.5ft 7s 16 20 mph 1026.8mb 58f 58f
3:00 6.5ft 7s 18 22 mph 1027.1mb 58f 56f
2:00 6ft 7s 18 20 mph 1027.6mb 58f 56f
1:00 6ft 7s 18 20 mph 1027.8mb 58f 57f
12:00 5.5ft 7s 16 18 mph 1028mb 57f 57f
11:00 5ft 7s 16 18 mph 1028.1mb 57f 57f
10:00 5ft 7s 16 18 mph 1028mb 57f 57f
9:00 5ft 6s 16 18 mph 1027.6mb 57f 57f
8:00 5.5ft 7s 16 20 mph 1027.4mb 57f 58f
7:00 6ft 6s 16 20 mph 1027.1mb 57f 58f
6:00 6ft 7s 18 20 mph 1026.7mb 57f 58f
5:00 6ft 6s 18 20 mph 1026.4mb 57f 58f
4:00 6.5ft 6s 16 22 mph 1026.5mb 57f 58f
3:00  -   -  20
mph
1026.2mb - 59f
2:00 6ft 6s 18 20 mph 1026.3mb 57f 59f
1:00 5.5ft 7s 18 20 mph 1026.3mb 58f 59f
12:00 5ft 6s 20 25 mph 1026.2mb 58f 60f
mar. 08/23 11:00 4.5ft 6s 20 22 mph 1026.3mb 58f 60f
10:00 4.5ft 6s 20 27 mph 1026.1mb 59f 61f
9:00 3.5ft 5s 20 25 mph 1026.1mb 59f 60f
8:00 3.5ft 5s 20 25 mph 1026.1mb 59f 60f
7:00 3.5ft 5s 20 22 mph 1026mb 59f 60f
6:00 3.5ft 5s 18 22 mph 1026mb 59f 59f
5:00 3.5ft 4s 18 22 mph 1026mb 59f 59f
4:00 3.5ft 5s 18 22 mph 1026.2mb 59f 58f
3:00 3.5ft 5s 18 22 mph 1026.3mb 59f 58f
2:00 3.5ft 5s 18 22 mph 1026.5mb 59f 59f
1:00 3.5ft 4s 18 22 mph 1026.7mb 59f 58f
12:00 3ft 16s 18 20 mph 1026.8mb 59f 58f
11:00 2.5ft 13s 13 18 mph 1026.6mb 59f 58f
10:00 2.5ft 16s 16 20 mph - 59f -
9:00 2.5ft 17s 11 13 mph 1026.1mb 59f 59f
8:00 2.5ft 14s 13 16 mph 1025.7mb 59f 58f
7:00 2.5ft 17s 11 13 mph 1025.2mb 59f 58f
6:00 2.5ft 15s 11 13 mph 1024.6mb 59f 58f
5:00 2.5ft 14s 11 13 mph 1024.2mb 59f 59f
4:00 2.5ft 17s 13
mph
1023.8mb 59f 59f
3:00 3ft 14s 13 16 mph 1023.8mb 59f 59f
2:00 3ft 14s 13
mph
1023.7mb 59f 59f
1:00 3ft 6s 13 16 mph 1023.6mb 58f 59f
12:00 3ft 14s 13 16 mph 1023.7mb 59f 59f
lun. 08/22 11:00 3ft 14s 13 18 mph 1023.6mb 59f 59f
10:00 3ft 7s 16 18 mph 1023.3mb 59f 59f
9:00 3ft 14s 16 20 mph 1022.9mb 59f 59f
8:00 2.5ft 7s 13 18 mph 1022.1mb 59f 59f
7:00 3ft 15s 16 18 mph 1021.9mb 59f 59f
6:00 3ft 15s 13 16 mph 1021.9mb 60f 59f
5:00 3.5ft 7s 13
mph
1022mb 60f 59f
4:00 3.5ft 7s 13 16 mph 1022mb 60f 59f
3:00 3.5ft 6s 13 16 mph 1021.9mb 60f 59f
2:00  -   -  11
mph
- - -
1:00 4.5ft 8s 11 13 mph 1021.3mb 59f 59f
12:00 4.5ft 7s 11 13 mph 1021.1mb 59f 59f
11:00 4ft 8s 11 13 mph 1020.8mb 59f 59f
10:00 4.5ft 8s 11 13 mph 1020.3mb 59f 58f
9:00 4.5ft 8s 13
mph
1019.8mb 59f 59f
8:00 4.5ft 8s 13 16 mph 1019.2mb 59f 59f
7:00 4ft 8s 11 13 mph 1018.6mb 59f 59f
6:00 4.5ft 8s 11 13 mph 1018mb 59f 59f
5:00 5ft 8s 9 11 mph 1017.5mb 59f 59f
4:00 5ft 8s 11 13 mph 1017.2mb 59f 60f
3:00 5ft 7s 4 7 mph 1017mb 59f 59f
2:00 6ft 8s 7 9 mph 1016.6mb 59f 59f
1:00 6ft 8s 7 9 mph 1016.2mb 59f 58f
12:00 6ft 8s 4 7 mph 1016mb 58f 59f
dim. 08/21 11:00 5.5ft 8s 2 4 mph 1016mb 58f 58f
10:00 6ft 8s 4 7 mph 1015.8mb 58f 59f
9:00 5.5ft 8s 9 11 mph 1015.6mb 58f 59f
8:00 5.5ft 8s 13 16 mph 1015.1mb 58f 59f
7:00 5ft 8s 13 16 mph 1014.7mb 59f 59f